Skip to main content Skip to accessibility
This website is not compatible with your web browser. You should install a newer browser. If you live in Jersey and need help upgrading call the States of Jersey web team on 440099.
Homegov.je

L'înformâtion et les sèrvices publyis pouor I'Île dé Jèrri

  • Choose the service you want to log in to:

  • gov.je

    Update your notification preferences

  • one.gov.je

    Access government and parish services

  • CAESAR

    Clear goods through customs or claim relief

  • Talentlink

    View or update your States of Jersey job application

Local METARs

METAR EGJJ 212320Z AUTO 10008KT 9999 NCD 13/11 Q1026

METAR EGJB 212250Z 13003KT CAVOK 14/09 Q1026

METAR LFRD 212330Z AUTO 02002KT CAVOK 13/11 Q1026 NOSIG

METAR LFRC 212330Z AUTO 18004KT CAVOK 11/11 Q1026

 

 

 

​Times are in Greenwich Mean Time (GMT) and not British Summer Time (BST). They will be one hour different during BST.

Back to top
rating button